User: anonymous   Login
Location: Bagnara
(41.0500°N, 14.7833°E)
Time: 05:37:51
(UTC+00:00)
Language:

FALCON 9 DEB - Orbit

View from above orbital plane
View from above orbital plane
View from above satellite
View from above satellite

Ground track
Ground track

The orbit data is extracted from the following two-line orbital elements,

1 46085U 20055BL  21261.25747886  .00023494  00000-0  21336-3 0  9994
2 46085  53.0086 101.4246 0009346 185.9689 174.1216 15.67858253 68201
Epoch (UTC): 18 September 2021 06:10:46
Eccentricity: 0.0009346
inclination: 53.0086°
perigee height: 359 km
apogee height: 371 km
right ascension of ascending node: 101.4246°
argument of perigee: 185.9689°
revolutions per day: 15.67858253
mean anomaly at epoch: 174.1216°
orbit number at epoch: 6820

The dashed part of the orbit path shows where the satellite is in the earth's shadow,  

DLR